Wind_Speed
11 6 4 3 2 1 2 3 4 3 3 3 5 6 5 5 5 7 9 15 12 9 8 8 10 10 8 10 12 12 12 12 11 13 12 13 14 14 15 15 15 14 13
13 9 6 5 3 3 4 3 3 3 3 2 3 4 3 6 7 3 4 20 15 10 9 9 9 11 11 12 13 12 13 13 13 14 12 12 13 14 15 14 13 14 12
12 10 9 6 6 5 4 3 3 2 3 2 2 2 2 3 6 10 4 11 16 10 8 9 11 11 12 13 14 13 13 13 14 14 12 12 12 14 15 14 13 12 10
13 11 9 7 7 6 4 4 3 3 2 2 3 3 1 2 4 8 11 12 14 8 6 9 11 11 12 13 14 14 13 13 14 15 13 11 11 12 15 15 14 11 10
17 13 9 7 7 7 7 5 4 3 2 2 1 3 1 2 3 7 11 8 10 9 8 9 11 12 13 13 13 14 14 12 14 14 14 13 12 11 13 13 13 12 12
20 16 12 9 7 7 7 6 4 3 2 2 2 2 2 3 4 6 8 7 9 14 12 12 13 13 14 13 12 12 13 12 12 13 13 12 11 11 11 10 10 10 11
19 17 16 13 8 5 5 5 5 4 4 2 2 3 3 3 4 6 9 10 9 12 19 14 14 14 15 14 13 13 12 11 10 10 12 10 10 10 9 9 9 9 9
20 19 16 15 12 9 5 5 5 4 4 4 3 4 6 8 7 7 8 9 6 11 21 17 16 15 15 15 14 14 13 10 8 8 8 6 9 10 7 7 7 6 7
22 19 16 13 12 12 9 6 6 5 5 5 5 5 5 6 8 8 9 10 8 8 22 19 16 15 15 15 14 13 12 10 8 7 6 4 5 6 5 4 5 5 5
20 18 17 15 14 13 9 7 6 6 7 7 7 7 7 6 5 6 7 11 12 13 16 17 19 18 16 14 15 14 13 11 9 7 6 5 3 3 2 1 1 2 3
19 17 17 16 16 12 8 8 8 7 7 8 7 9 7 7 9 9 8 8 11 13 13 11 15 20 20 17 16 15 14 14 13 11 9 7 7 5 4 3 2 2 2
20 18 21 15 12 12 6 10 12 12 7 6 7 7 10 11 12 12 12 10 10 11 12 14 14 16 18 19 21 20 19 18 16 13 11 10 9 8 7 6 6 5 4
28 18 15 14 11 9 5 6 10 8 11 5 10 7 11 10 13 11 18 14 12 12 12 11 13 14 17 15 14 16 20 22 19 16 14 15 15 13 11 11 11 12 10
25 17 9 8 11 10 3 7 16 5 7 11 13 9 13 12 17 15 19 14 12 13 11 11 12 12 13 17 14 13 14 17 20 17 15 18 17 16 16 16 15 16 15
39 19 10 2 8 6 5 2 5 5 4 12 11 16 13 13 15 9 10 7 9 16 14 11 12 13 11 9 13 13 11 16 15 18 20 19 19 19 19 19 18 18 18
25 33 40 19 10 8 13 6 6 6 3 9 11 14 20 14 15 17 13 11 13 17 16 17 15 12 11 10 10 11 13 14 15 16 17 18 18 19 20 21 22 22 21
38 37 37 23 9 11 6 2 6 7 5 7 10 13 16 17 17 10 9 8 9 11 13 14 13 13 13 14 13 13 13 14 16 16 19 21 21 21 21 22 22 24 23
38 35 29 32 20 11 6 6 7 4 6 10 14 7 8 11 10 7 5 4 8 10 7 12 13 15 12 11 12 12 15 17 16 16 18 20 20 20 21 21 21 18 20
38 35 33 28 21 17 13 11 9 8 7 5 12 12 9 13 10 7 7 7 9 9 9 15 12 10 9 9 11 12 12 13 15 17 20 20 22 23 22 21 21 21 21
36 34 34 22 21 16 13 12 10 10 4 6 10 13 11 12 12 10 10 12 12 9 9 11 12 11 11 12 11 10 11 14 17 19 20 20 20 20 20 22 22 25 27
34 32 29 21 20 20 16 13 11 12 7 5 10 11 10 13 13 12 11 15 11 11 12 9 10 12 13 10 11 9 12 13 15 17 19 20 20 19 19 20 21 24 23
33 31 29 24 22 22 22 16 14 11 6 2 1 15 13 13 13 13 13 13 12 10 8 10 10 11 9 11 10 11 12 15 16 16 18 20 18 19 21 17 19 19 18
30 32 28 24 19 20 20 19 18 14 15 4 2 7 14 14 16 19 15 11 8 9 9 10 9 9 9 8 9 11 13 15 16 18 18 19 18 21 19 19 9 11 16
28 32 31 24 18 18 18 17 16 14 14 13 5 4 13 14 16 18 14 12 11 10 10 9 8 7 8 8 8 10 12 15 16 17 17 18 24 22 22 15 7 10 17
26 26 29 29 22 21 23 19 17 15 9 12 8 10 14 17 17 18 16 14 12 9 9 8 8 8 8 7 8 9 9 10 12 13 13 14 17 21 16 12 11 11 14
27 27 26 28 26 24 19 17 16 13 11 9 8 8 13 19 18 24 20 15 11 9 8 8 8 7 7 6 5 5 5 7 9 9 11 13 13 16 10 11 10 14 15
Wind_Direction
26 21 34 33 3 343 329 318 297 297 276 256 261 271 308 340 354 290 274 221 194 180 167 161 148 142 139 129 120 120 117 113 112 105 101 100 94 91 88 86 84 78 78
19 13 23 30 7 7 339 326 315 320 310 318 277 286 22 33 47 36 184 210 188 162 164 150 145 142 142 132 123 121 118 115 107 105 102 98 95 91 93 89 87 80 75
23 19 17 14 12 4 344 17 10 339 346 339 294 316 53 36 44 57 78 176 178 146 153 145 144 147 140 135 128 126 122 113 108 100 100 99 93 92 92 88 84 80 74
27 24 19 10 11 10 12 40 31 9 351 313 288 291 352 73 55 62 130 116 136 132 147 152 147 147 140 138 134 127 121 116 106 100 99 100 99 95 93 90 86 80 72
30 22 14 13 17 12 17 19 18 14 33 57 272 242 176 148 124 116 160 170 172 176 169 157 152 149 148 143 137 128 122 118 112 106 104 98 102 98 94 93 91 87 78
27 25 23 19 18 15 6 7 6 352 2 112 194 226 177 160 141 138 146 172 170 183 182 170 156 158 153 150 143 131 120 110 103 106 101 108 104 99 92 89 92 90 87
31 27 23 22 13 17 355 343 336 335 328 318 215 217 216 198 176 153 144 156 169 189 186 177 168 167 160 159 157 145 137 126 115 104 101 96 98 87 86 85 85 84 82
24 24 24 25 20 10 351 311 304 315 315 299 264 209 205 215 200 198 170 160 156 176 181 185 182 182 172 172 169 164 153 145 136 126 107 100 93 88 78 75 72 65 71
23 23 19 17 14 14 350 317 300 281 273 277 265 229 221 207 215 216 208 186 165 138 177 195 188 197 193 187 185 187 173 167 169 158 134 130 101 94 87 77 73 59 50
6 13 7 7 8 1 338 313 305 289 268 260 259 243 221 221 215 222 218 205 195 170 175 197 205 203 205 204 203 201 202 191 195 189 184 176 184 142 148 171 80 48 35
359 357 349 354 346 349 342 339 297 289 286 270 255 253 237 221 216 208 223 221 215 191 181 178 186 207 207 214 215 214 218 210 206 213 212 212 214 219 214 250 249 268 322
331 329 330 335 354 348 9 356 312 266 253 274 259 252 241 227 225 217 212 213 219 209 185 180 195 189 204 220 219 220 224 223 218 221 225 227 236 235 242 250 262 257 260
321 302 311 311 339 11 27 349 306 274 273 279 266 233 238 244 241 248 217 201 210 213 195 183 190 198 202 212 220 221 229 229 224 221 233 239 247 246 247 254 260 268 266
326 288 313 305 347 325 283 297 317 206 279 311 267 251 239 223 237 244 233 221 213 225 198 192 197 199 201 204 215 241 245 232 227 223 247 243 245 248 254 257 257 261 266
3 226 206 42 295 2 330 306 305 276 278 295 281 227 242 219 247 211 206 181 214 226 219 185 199 205 203 217 211 232 232 232 228 231 239 248 248 251 253 256 257 259 260
337 11 349 302 273 264 301 259 265 182 209 258 273 251 237 233 218 225 230 232 217 222 217 216 216 211 192 209 219 219 231 230 228 231 240 250 253 257 259 261 259 257 256
13 24 8 3 352 304 341 331 303 181 254 268 268 254 248 220 209 215 230 211 194 214 220 219 206 217 223 229 224 231 233 237 239 234 244 252 256 255 255 261 265 261 261
4 21 13 18 28 34 13 335 346 312 295 280 227 207 228 213 223 234 229 193 190 178 264 214 214 213 209 218 225 230 238 240 244 247 241 247 253 256 257 257 261 267 267
7 14 15 19 6 355 356 348 352 311 279 261 214 206 207 198 214 226 211 198 215 209 269 231 212 220 215 237 237 236 236 248 251 248 250 246 247 253 258 261 269 270 266
10 11 9 13 2 1 4 354 351 334 307 265 228 198 212 197 211 214 231 206 206 207 203 195 214 220 236 243 249 257 263 260 261 263 262 259 258 257 262 266 270 272 254
12 7 8 11 8 7 4 11 4 4 20 329 219 219 207 214 218 219 221 227 211 208 217 220 227 234 243 252 255 255 262 261 260 263 268 270 269 267 261 257 263 271 283
6 10 5 12 1 4 5 14 3 11 31 52 308 221 218 216 225 223 225 233 217 220 213 224 225 232 232 233 248 259 260 266 270 272 267 268 271 270 268 261 263 271 271
0 4 5 6 351 359 3 10 7 359 11 11 226 234 226 229 229 215 211 221 225 229 223 223 217 217 231 242 252 260 264 265 265 268 269 274 270 261 261 259 244 266 280
355 1 5 358 346 341 347 360 357 5 4 359 335 247 234 238 220 207 205 216 222 237 224 215 219 231 245 255 265 275 274 273 272 272 271 266 275 264 258 247 259 268 266
350 354 2 0 355 346 336 347 358 350 356 360 348 290 266 235 218 210 210 211 224 237 222 219 220 230 248 267 279 279 281 285 285 278 279 271 265 266 268 270 282 292 283
352 355 359 350 349 338 324 337 348 333 349 338 5 353 262 255 245 218 205 215 220 225 225 224 224 237 249 252 270 288 302 309 301 284 274 273 277 276 263 274 285 285 272
Height
5901 5902 5902 5903 5903 5903 5904 5905 5905 5906 5907 5907 5907 5905 5906 5908 5905 5907 5908 5909 5908 5909 5910 5911 5911 5912 5914 5914 5914 5916 5916 5917 5918 5917 5918 5918 5918 5918 5918 5919 5919 5920 5920
5901 5904 5903 5904 5904 5903 5904 5905 5905 5906 5907 5907 5907 5906 5907 5908 5906 5904 5905 5906 5909 5909 5911 5912 5912 5913 5915 5916 5917 5917 5918 5919 5919 5919 5920 5921 5920 5919 5920 5921 5922 5922 5922
5904 5904 5904 5904 5903 5903 5903 5904 5905 5906 5907 5907 5907 5907 5908 5908 5906 5904 5905 5907 5910 5911 5912 5913 5914 5915 5917 5918 5918 5919 5920 5920 5920 5920 5922 5923 5923 5922 5922 5922 5923 5923 5924
5904 5903 5904 5903 5903 5903 5903 5903 5904 5906 5907 5907 5907 5907 5907 5908 5907 5906 5907 5909 5911 5912 5913 5914 5915 5917 5918 5920 5920 5921 5922 5922 5922 5923 5924 5925 5925 5925 5924 5924 5925 5925 5925
5904 5903 5903 5902 5903 5903 5903 5904 5904 5905 5906 5906 5906 5906 5906 5907 5908 5908 5908 5909 5910 5912 5913 5915 5916 5917 5919 5921 5922 5922 5923 5924 5924 5924 5925 5926 5927 5927 5927 5926 5926 5927 5927
5906 5905 5904 5902 5902 5903 5903 5904 5904 5904 5905 5905 5905 5905 5905 5906 5908 5908 5909 5908 5909 5911 5914 5915 5916 5918 5920 5922 5923 5924 5925 5926 5926 5926 5926 5927 5928 5928 5928 5928 5928 5928 5928
5908 5907 5905 5903 5902 5902 5902 5902 5902 5903 5904 5905 5905 5905 5905 5906 5907 5908 5908 5908 5909 5908 5912 5915 5917 5919 5920 5922 5923 5925 5926 5927 5928 5930 5929 5930 5929 5929 5929 5930 5929 5929 5929
5910 5907 5905 5903 5902 5901 5900 5900 5900 5901 5903 5904 5905 5905 5903 5904 5906 5906 5907 5908 5908 5906 5910 5914 5916 5919 5920 5922 5923 5925 5925 5927 5928 5929 5930 5930 5929 5929 5930 5930 5930 5930 5930
5909 5907 5905 5903 5900 5900 5899 5899 5898 5899 5900 5902 5904 5904 5906 5904 5905 5907 5908 5908 5907 5907 5909 5913 5915 5918 5920 5921 5923 5925 5926 5927 5928 5929 5929 5930 5930 5930 5930 5931 5931 5931 5931
5909 5907 5905 5902 5900 5898 5896 5897 5897 5898 5899 5900 5903 5905 5906 5907 5907 5908 5908 5909 5908 5907 5908 5911 5914 5916 5920 5921 5922 5924 5925 5927 5928 5928 5929 5930 5930 5930 5930 5931 5931 5931 5931
5909 5905 5901 5900 5899 5897 5894 5895 5895 5895 5896 5898 5901 5903 5906 5907 5905 5905 5907 5910 5910 5909 5909 5912 5914 5915 5917 5920 5921 5923 5925 5925 5927 5927 5928 5929 5929 5930 5930 5930 5930 5931 5931
5907 5905 5901 5899 5895 5894 5892 5893 5892 5890 5890 5894 5897 5900 5902 5903 5903 5903 5904 5907 5910 5910 5908 5909 5912 5913 5916 5918 5918 5921 5922 5923 5925 5927 5928 5928 5929 5928 5928 5929 5930 5930 5930
5904 5899 5894 5896 5897 5893 5890 5888 5888 5888 5891 5891 5894 5896 5899 5901 5901 5903 5903 5904 5907 5909 5906 5908 5910 5911 5913 5916 5917 5919 5919 5921 5923 5924 5926 5926 5927 5927 5927 5927 5928 5929 5929
5897 5896 5893 5891 5891 5890 5887 5887 5886 5886 5887 5889 5891 5895 5896 5898 5898 5901 5901 5903 5906 5909 5907 5905 5909 5912 5913 5912 5915 5917 5917 5919 5921 5922 5913 5922 5924 5924 5925 5926 5926 5926 5927
5885 5864 5868 5884 5878 5888 5888 5886 5887 5886 5885 5887 5889 5890 5892 5895 5895 5899 5900 5901 5902 5906 5904 5904 5907 5909 5912 5915 5913 5915 5915 5916 5918 5919 5920 5922 5922 5922 5922 5922 5922 5923 5923
5897 5886 5873 5878 5881 5876 5887 5884 5886 5884 5884 5885 5886 5887 5888 5892 5894 5896 5896 5898 5901 5900 5898 5903 5904 5906 5908 5911 5912 5911 5913 5914 5915 5916 5918 5919 5919 5918 5918 5918 5918 5918 5918
5903 5891 5884 5879 5871 5880 5882 5884 5883 5885 5886 5884 5880 5880 5885 5889 5892 5892 5892 5896 5896 5895 5896 5900 5900 5902 5905 5907 5907 5909 5910 5911 5911 5912 5914 5915 5914 5913 5913 5913 5914 5915 5916
5903 5895 5891 5882 5882 5880 5880 5883 5882 5882 5882 5881 5880 5880 5881 5884 5887 5888 5888 5889 5893 5896 5897 5897 5899 5901 5904 5905 5906 5905 5907 5908 5906 5907 5910 5910 5910 5909 5909 5909 5910 5912 5914
5900 5894 5890 5885 5887 5884 5880 5879 5878 5880 5878 5876 5878 5880 5879 5880 5883 5885 5887 5890 5892 5893 5893 5893 5897 5899 5901 5903 5904 5903 5903 5903 5903 5904 5904 5906 5906 5905 5906 5907 5908 5908 5908
5901 5896 5891 5889 5889 5886 5881 5877 5876 5876 5874 5873 5873 5876 5879 5880 5882 5886 5888 5891 5893 5892 5893 5894 5895 5896 5897 5899 5897 5897 5898 5898 5899 5900 5900 5900 5901 5901 5902 5901 5901 5899 5898
5904 5898 5892 5891 5889 5887 5883 5877 5876 5874 5871 5870 5870 5872 5878 5881 5884 5887 5889 5890 5891 5891 5893 5892 5893 5893 5894 5894 5894 5895 5895 5896 5895 5894 5894 5895 5896 5897 5896 5894 5894 5893 5893
5904 5899 5894 5887 5886 5886 5882 5878 5877 5875 5870 5869 5870 5873 5876 5880 5883 5886 5886 5886 5887 5888 5888 5888 5889 5890 5892 5892 5892 5892 5893 5892 5890 5891 5891 5891 5892 5891 5890 5891 5889 5890 5891
5903 5898 5894 5887 5887 5884 5883 5879 5876 5875 5869 5868 5870 5873 5875 5878 5880 5883 5884 5885 5884 5886 5885 5887 5887 5888 5888 5889 5889 5890 5890 5888 5889 5888 5887 5886 5887 5886 5888 5885 5888 5885 5886
5902 5896 5892 5891 5887 5883 5881 5878 5876 5874 5871 5869 5867 5869 5872 5875 5877 5879 5881 5883 5884 5885 5885 5885 5885 5885 5885 5886 5886 5886 5886 5886 5885 5883 5883 5882 5881 5881 5879 5859 5878 5880 5883
5904 5900 5894 5890 5886 5882 5878 5876 5875 5874 5872 5869 5866 5866 5869 5872 5875 5876 5878 5879 5881 5882 5882 5882 5881 5882 5883 5883 5883 5883 5883 5881 5880 5879 5879 5879 5879 5876 5876 5875 5877 5874 5878
5902 5899 5895 5891 5886 5881 5877 5873 5871 5871 5871 5869 5866 5864 5865 5867 5870 5873 5875 5877 5878 5878 5879 5880 5880 5881 5881 5881 5881 5880 5879 5878 5877 5876 5876 5876 5875 5873 5868 5874 5873 5875 5876